Location: Moulis
(42.9609°N, 1.0909°E)
Time: 15:19:38
(UTC+00:00)

IGS 5A - Pass Details

Date: 11 December 2025
Orbit: 551 x 554 km, 97.4° (Epoch: 8 January)

Event Time Altitude Azimuth Distance (km) Brightness Sun altitude
Rises 17:06:04 0° 172° (S) 2,722 7.1 -8.1°
Reaches altitude 10° 17:08:11 10° 175° (S) 1,832 6.2 -8.5°
Maximum altitude 17:12:08 69° 258° (WSW) 597 3.7 -9.1°
Drops below altitude 10° 17:16:08 10° 343° (NNW) 1,848 6.0 -9.8°
Sets 17:18:17 0° 346° (NNW) 2,748 6.8 -10.2°
